Santa Ana, CA

9:34 AM PDT on September 23, 2019 (GMT -0700)
John Wayne-Orange County

Weather History for KSNA - August, 2019

Change the Weather History Date:

Monday, August 19, 2019

  Actual Average Record
Temperature  
Mean Temperature 74 °F 73 °F  
Max Temperature 80 °F 80 °F 89 °F (2012)
Min Temperature 67 °F 65 °F 60 °F (1999)
Degree Days  
Heating Degree Days 0 0  
Month to date heating degree days 0 0  
Since 1 June heating degree days 3 7  
Since 1 July heating degree days 0 0  
Cooling Degree Days 9 8  
Month to date cooling degree days 162 143  
Year to date cooling degree days 543 477  
Since 1 June cooling degree days 511 410  
Growing Degree Days 22 (Base 50)    
Moisture  
Dew Point 60 °F    
Average Humidity 68    
Maximum Humidity 81    
Minimum Humidity 54    
Precipitation  
Precipitation 0.00 in 0.00 in 0.12 in (1983)
Month to date precipitation 0.00 0.03  
Year to date precipitation 12.51 9.03  
Sea Level Pressure  
Sea Level Pressure 29.93 in    
Wind  
Wind Speed 4 mph (SW)    
Max Wind Speed 12 mph    
Max Gust Speed 22 mph    
Visibility 10 miles    
Events      
T = Trace of Precipitation, MM = Missing Value Source: NWS Daily Summary

Daily Weather History Graph

Daily Weather History Graph

Search for Another Location

Airport or City:

Astronomy

Aug. 19, 2019 Rise Set
Actual Time 6:16 AM PDT 7:33 PM PDT
Civil Twilight 5:50 AM PDT 7:59 PM PDT
Nautical Twilight 5:19 AM PDT 8:30 PM PDT
Astronomical Twilight 4:46 AM PDT 9:02 PM PDT
Moon 10:07 PM PDT (8/19) 9:52 AM PDT (8/19)
Length of Visible Light 14h 09m
Length of Day
13h 17m
Waning Gibbous, 84% of the Moon is Illuminated
Aug 19
Waning Gibbous
Aug 23
Last Quarter
Aug 30
New
Sep 5
First Quarter
Sep 13
Full

Hourly Weather History & Observations

Time (PDT) Temp. Dew Point Humidity Pressure Visibility Wind Dir Wind Speed Gust Speed Precip Events Conditions
12:53 AM 66.9 °F 60.1 °F 79% 29.91 in 10.0 mi Calm Calm - N/A   Clear
1:53 AM 66.9 °F 60.1 °F 79% 29.91 in 10.0 mi SSW 3.5 mph - N/A   Mostly Cloudy
2:37 AM 66.9 °F 60.1 °F 79% 29.92 in 10.0 mi Calm Calm - N/A   Overcast
2:53 AM 68.0 °F 60.1 °F 76% 29.92 in 10.0 mi West 3.5 mph - N/A   Overcast
3:53 AM 68.0 °F 60.1 °F 76% 29.93 in 10.0 mi Calm Calm - N/A   Overcast
4:45 AM 69.1 °F 59.0 °F 70% 29.94 in 10.0 mi NE 3.5 mph - N/A   Overcast
4:53 AM 69.1 °F 59.0 °F 70% 29.94 in 10.0 mi Calm Calm - N/A   Overcast
5:53 AM 69.1 °F 59.0 °F 70% 29.94 in 10.0 mi Calm Calm - N/A   Overcast
6:53 AM 69.1 °F 59.0 °F 70% 29.95 in 10.0 mi Calm Calm - N/A   Overcast
7:53 AM 70.0 °F 59.0 °F 68% 29.96 in 10.0 mi Variable 3.5 mph - N/A   Overcast
8:53 AM 71.1 °F 59.0 °F 66% 29.96 in 10.0 mi East 5.8 mph - N/A   Mostly Cloudy
9:53 AM 72.0 °F 59.0 °F 64% 29.97 in 10.0 mi Calm Calm - N/A   Mostly Cloudy
10:25 AM 73.9 °F 59.0 °F 59% 29.97 in 10.0 mi East 4.6 mph - N/A   Scattered Clouds
10:53 AM 75.0 °F 59.0 °F 57% 29.97 in 10.0 mi Variable 3.5 mph - N/A   Partly Cloudy
11:53 AM 78.1 °F 60.1 °F 54% 29.96 in 10.0 mi SSW 9.2 mph - N/A   Partly Cloudy
12:53 PM 78.1 °F 60.1 °F 54% 29.95 in 10.0 mi West 6.9 mph - N/A   Partly Cloudy
1:53 PM 79.0 °F 61.0 °F 54% 29.94 in 10.0 mi SW 11.5 mph - N/A   Clear
2:53 PM 79.0 °F 61.0 °F 54% 29.92 in 10.0 mi SW 6.9 mph - N/A   Clear
3:53 PM 78.1 °F 61.0 °F 56% 29.90 in 10.0 mi Variable 6.9 mph - N/A   Clear
4:53 PM 77.0 °F 61.0 °F 58% 29.89 in 10.0 mi SW 8.1 mph - N/A   Partly Cloudy
5:53 PM 75.0 °F 61.0 °F 62% 29.89 in 10.0 mi SSW 9.2 mph - N/A   Partly Cloudy
6:53 PM 73.9 °F 61.0 °F 64% 29.88 in 10.0 mi SW 4.6 mph - N/A   Partly Cloudy
7:53 PM 71.1 °F 61.0 °F 70% 29.88 in 10.0 mi WSW 5.8 mph - N/A   Partly Cloudy
8:53 PM 71.1 °F 61.0 °F 70% 29.90 in 10.0 mi SW 3.5 mph - N/A   Partly Cloudy
9:53 PM 70.0 °F 61.0 °F 73% 29.91 in 10.0 mi SSW 4.6 mph - N/A   Clear
10:53 PM 70.0 °F 60.1 °F 71% 29.91 in 10.0 mi WSW 3.5 mph - N/A   Clear
11:53 PM 69.1 °F 61.0 °F 75% 29.91 in 10.0 mi SW 3.5 mph - N/A   Clear